Location: Albany
(42.6526°N, 73.7562°W)
Time: 12:54:37
(UTC+00:00)

Cosmos 1151 Rocket - Pass Details

Date: 19 November 2019
Orbit: 593 x 616 km, 82.5° (Epoch: 10 December)

Event Time Altitude Azimuth Distance (km) Brightness Sun altitude
Rises 22:08:47 0° 159° (SSE) 2,861 6.5 -7.5°
Reaches altitude 10° 22:11:13 10° 148° (SSE) 1,965 5.5 -8.0°
Maximum altitude 22:14:55 28° 89° (E) 1,166 3.9 -8.6°
Drops below altitude 10° 22:18:39 10° 31° (NNE) 1,985 5.2 -9.3°
Sets 22:21:07 0° 20° (NNE) 2,896 6.1 -9.7°
